TimeCDT,TemperatureF,Dew PointF,Humidity,Sea Level PressureIn,VisibilityMPH,Wind Direction,Wind SpeedMPH,Gust SpeedMPH,PrecipitationIn,Events,Conditions,WindDirDegrees,DateUTC
12:15 AM,50.9,34.7,54,30.26,10.0,East,4.6,-,N/A,,Overcast,90,2013-03-29 05:15:00
12:35 AM,51.1,34.2,52,30.26,10.0,East,4.6,-,N/A,,Overcast,100,2013-03-29 05:35:00
12:55 AM,50.4,34.5,55,30.25,10.0,East,4.6,-,N/A,,Overcast,100,2013-03-29 05:55:00
1:15 AM,50.4,34.5,55,30.25,10.0,ENE,4.6,-,N/A,,Overcast,70,2013-03-29 06:15:00
1:55 AM,49.5,35.8,59,30.26,10.0,East,3.5,-,N/A,,Drizzle,80,2013-03-29 06:55:00
2:15 AM,49.1,35.8,60,30.27,10.0,Calm,Calm,-,N/A,,Overcast,0,2013-03-29 07:15:00
2:35 AM,48.6,36.9,64,30.26,10.0,East,3.5,-,N/A,Rain,Light Rain,100,2013-03-29 07:35:00
2:55 AM,48.9,36.1,61,30.26,10.0,East,3.5,-,N/A,,Overcast,100,2013-03-29 07:55:00
3:35 AM,47.5,37.4,68,30.24,10.0,East,4.6,-,N/A,,Overcast,80,2013-03-29 08:35:00
3:55 AM,46.4,38.5,74,30.24,10.0,ENE,5.8,-,N/A,Rain,Light Rain,70,2013-03-29 08:55:00
4:15 AM,45.9,38.8,76,30.24,10.0,ENE,4.6,-,N/A,Rain,Light Rain,70,2013-03-29 09:15:00
4:35 AM,45.9,38.8,76,30.23,10.0,East,6.9,-,N/A,Rain,Light Rain,80,2013-03-29 09:35:00
4:55 AM,45.7,39.2,78,30.24,10.0,NE,3.5,-,0.01,Rain,Light Rain,40,2013-03-29 09:55:00
5:15 AM,45.3,39.7,81,30.24,7.0,Calm,Calm,-,0.02,Rain,Rain,0,2013-03-29 10:15:00
5:35 AM,44.6,39.9,84,30.24,10.0,ESE,5.8,-,0.02,Rain,Light Rain,110,2013-03-29 10:35:00
5:55 AM,44.6,40.1,84,30.24,10.0,SE,5.8,-,0.04,Rain,Rain,140,2013-03-29 10:55:00
6:15 AM,44.2,40.8,88,30.24,7.0,SE,5.8,-,0.04,Rain,Rain,130,2013-03-29 11:15:00
6:35 AM,44.1,42.4,94,30.25,7.0,SSE,4.6,-,0.06,Rain,Light Rain,150,2013-03-29 11:35:00
6:55 AM,44.1,43.2,97,30.25,7.0,SE,4.6,-,0.09,Rain,Rain,130,2013-03-29 11:55:00
7:15 AM,44.6,44.2,99,30.24,4.0,ESE,6.9,-,0.02,Rain,Light Rain,120,2013-03-29 12:15:00
7:35 AM,44.8,44.6,99,30.24,4.0,SE,5.8,-,0.05,Rain,Rain,140,2013-03-29 12:35:00
7:55 AM,45.5,45.1,99,30.24,4.0,SE,6.9,-,0.08,Rain,Light Rain,140,2013-03-29 12:55:00
8:15 AM,45.9,45.7,99,30.24,5.0,Calm,Calm,-,N/A,,Drizzle,0,2013-03-29 13:15:00
8:35 AM,46.4,46.0,99,30.24,5.0,Calm,Calm,-,0.02,Rain,Rain,0,2013-03-29 13:35:00
8:55 AM,46.0,45.9,99,30.25,3.0,North,5.8,-,0.03,Rain,Light Rain,10,2013-03-29 13:55:00
9:15 AM,45.9,45.9,100,30.26,4.0,Calm,Calm,-,0.01,,Light Drizzle,0,2013-03-29 14:15:00
9:35 AM,46.4,46.4,100,30.25,4.0,East,3.5,-,0.01,Rain,Light Rain,90,2013-03-29 14:35:00
9:55 AM,46.8,46.8,100,30.24,5.0,ESE,4.6,-,0.01,,Light Drizzle,120,2013-03-29 14:55:00
10:15 AM,47.1,46.8,99,30.24,5.0,East,3.5,-,N/A,,Light Drizzle,80,2013-03-29 15:15:00
10:35 AM,47.8,47.5,99,30.25,7.0,Calm,Calm,-,N/A,,Light Drizzle,0,2013-03-29 15:35:00
10:55 AM,49.1,48.0,96,30.24,10.0,ESE,5.8,-,N/A,,Scattered Clouds,110,2013-03-29 15:55:00
11:15 AM,50.2,47.8,92,30.25,10.0,ESE,3.5,-,N/A,,Mostly Cloudy,110,2013-03-29 16:15:00
11:35 AM,51.6,48.0,87,30.24,10.0,SSE,4.6,-,N/A,,Mostly Cloudy,160,2013-03-29 16:35:00
11:55 AM,51.6,47.7,86,30.24,10.0,SE,3.5,-,N/A,,Overcast,140,2013-03-29 16:55:00
12:15 PM,52.7,48.0,84,30.24,10.0,SSW,4.6,-,N/A,,Overcast,200,2013-03-29 17:15:00
12:35 PM,52.7,47.8,84,30.23,10.0,SSE,3.5,-,N/A,,Overcast,160,2013-03-29 17:35:00
12:55 PM,53.2,46.8,79,30.23,10.0,Calm,Calm,-,N/A,,Overcast,0,2013-03-29 17:55:00
1:15 PM,54.1,46.6,76,30.22,10.0,Calm,Calm,-,N/A,,Overcast,0,2013-03-29 18:15:00
1:35 PM,54.5,46.6,75,30.21,10.0,Calm,Calm,-,N/A,,Overcast,0,2013-03-29 18:35:00
1:55 PM,55.4,46.6,72,30.21,10.0,Calm,Calm,-,N/A,,Overcast,0,2013-03-29 18:55:00
2:15 PM,55.4,47.1,74,30.21,10.0,Calm,Calm,-,N/A,,Overcast,0,2013-03-29 19:15:00
2:35 PM,55.9,47.1,72,30.20,10.0,Calm,Calm,-,N/A,,Overcast,0,2013-03-29 19:35:00
2:55 PM,56.1,46.6,70,30.20,10.0,WNW,3.5,-,N/A,,Overcast,290,2013-03-29 19:55:00
3:15 PM,55.9,46.6,71,30.19,10.0,West,3.5,-,N/A,,Overcast,280,2013-03-29 20:15:00
3:35 PM,55.8,46.9,72,30.19,10.0,West,4.6,-,N/A,,Overcast,280,2013-03-29 20:35:00
3:55 PM,55.6,47.3,74,30.19,10.0,North,3.5,-,N/A,,Overcast,350,2013-03-29 20:55:00
4:15 PM,55.2,48.4,78,30.19,10.0,North,6.9,-,N/A,,Overcast,10,2013-03-29 21:15:00
4:35 PM,54.7,48.2,79,30.19,10.0,NE,5.8,-,N/A,,Overcast,40,2013-03-29 21:35:00
4:55 PM,54.1,48.2,80,30.19,10.0,North,6.9,-,N/A,,Overcast,360,2013-03-29 21:55:00
5:15 PM,53.6,48.0,81,30.19,10.0,NNE,5.8,-,N/A,,Overcast,30,2013-03-29 22:15:00
5:35 PM,53.1,47.8,82,30.19,10.0,NNE,5.8,-,N/A,,Overcast,30,2013-03-29 22:35:00
5:55 PM,52.7,47.7,83,30.20,10.0,NNE,4.6,-,N/A,,Overcast,30,2013-03-29 22:55:00
6:15 PM,52.7,47.7,83,30.20,10.0,NNE,3.5,-,N/A,,Overcast,30,2013-03-29 23:15:00
6:35 PM,52.7,47.5,82,30.20,10.0,NNE,4.6,-,N/A,,Overcast,20,2013-03-29 23:35:00
6:55 PM,52.2,47.8,85,30.20,10.0,NNE,3.5,-,N/A,,Overcast,20,2013-03-29 23:55:00
7:15 PM,52.0,47.7,85,30.20,10.0,Calm,Calm,-,N/A,,Overcast,0,2013-03-30 00:15:00
7:35 PM,51.8,47.5,85,30.21,10.0,Calm,Calm,-,N/A,,Overcast,0,2013-03-30 00:35:00
7:55 PM,51.8,47.3,85,30.21,10.0,Calm,Calm,-,N/A,,Overcast,0,2013-03-30 00:55:00
8:15 PM,51.3,47.7,87,30.21,10.0,NE,3.5,-,N/A,,Overcast,50,2013-03-30 01:15:00
8:35 PM,51.1,47.3,87,30.21,10.0,Calm,Calm,-,N/A,,Overcast,0,2013-03-30 01:35:00
8:55 PM,51.1,47.3,87,30.22,10.0,Calm,Calm,-,N/A,,Overcast,0,2013-03-30 01:55:00
9:15 PM,50.9,46.9,86,30.22,10.0,East,3.5,-,N/A,,Overcast,80,2013-03-30 02:15:00
9:35 PM,50.2,46.6,87,30.22,10.0,Calm,Calm,-,N/A,,Overcast,0,2013-03-30 02:35:00
9:55 PM,48.7,46.0,90,30.22,10.0,Calm,Calm,-,N/A,,Scattered Clouds,0,2013-03-30 02:55:00
10:15 PM,47.3,46.6,97,30.22,7.0,Calm,Calm,-,N/A,,Clear,0,2013-03-30 03:15:00
10:35 PM,46.9,46.8,99,30.22,7.0,Calm,Calm,-,N/A,,Clear,0,2013-03-30 03:35:00
10:55 PM,45.0,45.0,100,30.21,4.0,Calm,Calm,-,N/A,,Clear,0,2013-03-30 03:55:00
11:15 PM,44.1,44.1,100,30.21,4.0,NNE,3.5,-,N/A,,Clear,30,2013-03-30 04:15:00
11:35 PM,42.8,42.8,100,30.21,1.8,Calm,Calm,-,N/A,,Mist,0,2013-03-30 04:35:00
11:55 PM,42.3,42.3,100,30.20,2.0,Calm,Calm,-,N/A,,Clear,0,2013-03-30 04:55:00